Doylestown, PA

8:33 AM EST on February 12, 2016 (GMT -0500)
Doylestown

Weather History for KDYL - February, 2013

Change the Weather History Date:

Sunday, February 3, 2013

  Actual Average (KTTN) Record (KTTN)
Temperature  
Mean Temperature 24 °F 32 °F  
Max Temperature 30 °F 40 °F 62 °F (2006)
Min Temperature 17 °F 24 °F 2 °F (1881)
Degree Days  
Heating Degree Days 42 33  
Month to date heating degree days 99  
Since 1 July heating degree days 3045  
Cooling Degree Days 0 0  
Month to date cooling degree days 0  
Year to date cooling degree days 0  
Moisture  
Dew Point 20 °F    
Average Humidity 85    
Maximum Humidity 100    
Minimum Humidity 69    
Precipitation  
Precipitation 0.06 in 0.07 in 1.57 in (1939)
Month to date precipitation 0.22  
Year to date precipitation 3.38  
Sea Level Pressure  
Sea Level Pressure 29.90 in    
Wind  
Wind Speed 1 mph (WNW)    
Max Wind Speed 10 mph    
Max Gust Speed 21 mph    
Visibility 9 miles    
Events Snow    
T = Trace of Precipitation, MM = Missing Value Source: NWS Daily Summary

Daily Weather History Graph

Daily Weather History Graph

Search for Another Location

Airport or City:

Trip Planner

Search our weather history database for the weather conditions in past years. The results will help you decide how hot, cold, wet, or windy it might be!

Date:

Astronomy

Feb. 03, 2013 Rise Set
Actual Time 7:07 AM EST 5:21 PM EST
Civil Twilight 6:38 AM EST 5:50 PM EST
Nautical Twilight 6:06 AM EST 6:22 PM EST
Astronomical Twilight 5:34 AM EST 6:54 PM EST
Moon 12:32 AM EST (2/3) 10:57 AM EST (2/3)
Length of Visible Light 11h 11m
Length of Day
10h 14m
Waning Gibbous, 49% of the Moon is Illuminated
Feb 3
Waning Gibbous
Feb 10
New
Feb 17
First Quarter
Feb 25
Full
Mar 4
Last Quarter

Hourly Weather History & Observations

Time (EST) Temp. Windchill Dew Point Humidity Pressure Visibility Wind Dir Wind Speed Gust Speed Precip Events Conditions
12:13 AM 23.0 °F - 21.2 °F 93% 30.01 in 3.0 mi Calm Calm - 0.00 in Snow Light Snow
12:20 AM 23.0 °F - 21.2 °F 93% 30.01 in 3.0 mi Calm Calm - 0.00 in Snow Light Snow
12:50 AM 21.2 °F - 21.2 °F 100% 30.00 in 4.0 mi Calm Calm - 0.00 in Snow Light Snow
12:54 AM 23.0 °F - 21.0 °F 92% 30.03 in 4.0 mi Calm Calm - 0.00 in Snow Light Snow
1:54 AM 23.0 °F - 21.0 °F 92% 30.01 in 6.0 mi Calm Calm - 0.00 in Snow Light Snow
2:54 AM 23.0 °F - 21.0 °F 92% 29.98 in 10.0 mi Calm Calm - 0.00 in   Overcast
3:54 AM 21.9 °F - 21.0 °F 96% 29.96 in 10.0 mi Calm Calm - N/A   Overcast
4:54 AM 21.9 °F 17.2 °F 21.0 °F 96% 29.95 in 10.0 mi NNE 3.5 mph - N/A   Overcast
5:10 AM 21.2 °F 16.4 °F 21.2 °F 100% 29.91 in 10.0 mi NNE 3.5 mph - N/A   Overcast
5:54 AM 19.9 °F - 19.0 °F 96% 29.94 in 8.0 mi Calm Calm - N/A   Partly Cloudy
6:44 AM 17.6 °F - 17.6 °F 100% 29.92 in 8.0 mi Calm Calm - N/A   Scattered Clouds
6:52 AM 19.4 °F - 17.6 °F 93% 29.92 in 9.0 mi Calm Calm - N/A   Mostly Cloudy
6:54 AM 19.0 °F - 17.1 °F 92% 29.96 in 9.0 mi Calm Calm - N/A   Mostly Cloudy
7:54 AM 19.9 °F 14.9 °F 19.0 °F 96% 29.96 in 5.0 mi NE 3.5 mph - N/A   Overcast
8:40 AM 21.2 °F - 19.4 °F 93% 29.93 in 10.0 mi Calm Calm - N/A   Overcast
8:54 AM 21.9 °F - 19.9 °F 92% 29.97 in 10.0 mi Calm Calm - N/A   Overcast
9:54 AM 23.0 °F - 19.0 °F 85% 29.95 in 10.0 mi Calm Calm - N/A   Overcast
10:54 AM 21.9 °F - 18.0 °F 85% 29.94 in 10.0 mi Calm Calm - N/A   Overcast
11:54 AM 25.0 °F - 19.0 °F 78% 29.90 in 10.0 mi Calm Calm - 0.03 in   Mostly Cloudy
12:13 PM 24.8 °F 20.5 °F 19.4 °F 80% 29.86 in 10.0 mi WSW 3.5 mph - 0.01 in   Mostly Cloudy
12:29 PM 26.6 °F 22.6 °F 19.4 °F 74% 29.85 in 10.0 mi NW 3.5 mph - 0.02 in   Partly Cloudy
12:41 PM 26.6 °F - 19.4 °F 74% 29.84 in 10.0 mi Calm Calm - 0.02 in   Mostly Cloudy
12:54 PM 26.1 °F 21.9 °F 19.9 °F 78% 29.87 in 10.0 mi Variable 3.5 mph - 0.02 in   Mostly Cloudy
1:54 PM 28.0 °F 22.8 °F 21.0 °F 75% 29.84 in 10.0 mi WNW 4.6 mph - 0.01 in   Scattered Clouds
2:54 PM 30.0 °F 21.7 °F 21.0 °F 69% 29.83 in 10.0 mi WNW 9.2 mph - N/A   Mostly Cloudy
3:54 PM 27.0 °F 21.6 °F 18.0 °F 69% 29.83 in 10.0 mi West 4.6 mph - N/A   Overcast
4:54 PM 27.0 °F 20.5 °F 18.0 °F 69% 29.83 in 10.0 mi WNW 5.8 mph - N/A   Scattered Clouds
5:54 PM 26.1 °F 21.9 °F 17.1 °F 69% 29.83 in 10.0 mi SW 3.5 mph - N/A   Clear
6:54 PM 24.1 °F - 17.1 °F 75% 29.84 in 10.0 mi Calm Calm - N/A   Clear
7:54 PM 23.0 °F - 18.0 °F 81% 29.84 in 10.0 mi Calm Calm - N/A   Mostly Cloudy
8:54 PM 25.0 °F - 19.0 °F 78% 29.84 in 10.0 mi Calm Calm - N/A   Overcast
9:54 PM 25.0 °F 19.3 °F 19.9 °F 81% 29.84 in 10.0 mi SW 4.6 mph - N/A   Overcast
10:22 PM 24.8 °F 16.9 °F 21.2 °F 86% 29.82 in 7.0 mi NW 6.9 mph - 0.00 in Snow Light Snow
10:54 PM 25.0 °F 19.3 °F 23.0 °F 92% 29.86 in 3.0 mi West 4.6 mph - 0.00 in Snow Light Snow
11:13 PM 26.6 °F 19.1 °F 21.2 °F 80% 29.82 in 9.0 mi West 6.9 mph - 0.00 in   Overcast
11:54 PM 26.1 °F 16.2 °F 18.0 °F 71% 29.86 in 10.0 mi WNW 10.4 mph 20.7 mph 0.00 in   Overcast